TimeEDT,TemperatureF,Dew PointF,Humidity,Sea Level PressureIn,VisibilityMPH,Wind Direction,Wind SpeedMPH,Gust SpeedMPH,PrecipitationIn,Events,Conditions,WindDirDegrees,DateUTC
12:52 AM,46.0,41.0,83,29.96,10.0,Calm,Calm,-,N/A,,Clear,0,2012-10-07 04:52:00
1:52 AM,44.1,41.0,89,29.97,10.0,Calm,Calm,-,N/A,,Clear,0,2012-10-07 05:52:00
2:52 AM,41.0,39.0,93,29.99,10.0,SE,5.8,-,N/A,,Clear,140,2012-10-07 06:52:00
3:52 AM,42.1,39.0,89,29.99,10.0,Calm,Calm,-,N/A,,Clear,0,2012-10-07 07:52:00
4:52 AM,41.0,37.9,89,30.02,10.0,Calm,Calm,-,N/A,,Clear,0,2012-10-07 08:52:00
5:52 AM,41.0,39.0,93,30.04,10.0,Calm,Calm,-,N/A,,Clear,0,2012-10-07 09:52:00
6:52 AM,42.1,39.9,92,30.06,10.0,Calm,Calm,-,N/A,,Clear,0,2012-10-07 10:52:00
7:52 AM,45.0,41.0,86,30.07,10.0,NW,3.5,-,N/A,,Clear,320,2012-10-07 11:52:00
8:52 AM,52.0,41.0,66,30.09,10.0,Calm,Calm,-,N/A,,Clear,0,2012-10-07 12:52:00
9:52 AM,55.9,37.9,51,30.08,10.0,WNW,8.1,-,N/A,,Clear,300,2012-10-07 13:52:00
10:52 AM,55.9,37.0,49,30.08,10.0,Variable,3.5,-,N/A,,Scattered Clouds,0,2012-10-07 14:52:00
11:52 AM,55.9,37.0,49,30.07,10.0,NW,3.5,-,N/A,,Scattered Clouds,320,2012-10-07 15:52:00
12:52 PM,57.0,37.9,49,30.08,10.0,West,5.8,-,N/A,,Scattered Clouds,270,2012-10-07 16:52:00
1:52 PM,57.0,39.9,53,30.05,10.0,NW,5.8,-,N/A,,Partly Cloudy,310,2012-10-07 17:52:00
2:52 PM,55.9,39.0,53,30.06,10.0,WSW,4.6,-,N/A,,Mostly Cloudy,250,2012-10-07 18:52:00
3:52 PM,55.0,39.0,55,30.04,10.0,WSW,4.6,-,N/A,,Mostly Cloudy,240,2012-10-07 19:52:00
4:52 PM,55.0,39.0,55,30.03,10.0,South,3.5,-,N/A,,Clear,180,2012-10-07 20:52:00
5:52 PM,54.0,41.0,62,30.04,10.0,SW,3.5,-,N/A,,Overcast,220,2012-10-07 21:52:00
6:52 PM,53.1,41.0,64,30.03,10.0,Calm,Calm,-,N/A,,Overcast,0,2012-10-07 22:52:00
7:52 PM,53.1,42.1,66,30.00,10.0,South,3.5,-,N/A,,Overcast,170,2012-10-07 23:52:00
8:52 PM,52.0,43.0,71,30.04,10.0,WNW,3.5,-,N/A,,Overcast,290,2012-10-08 00:52:00
9:52 PM,50.0,44.1,80,30.08,8.0,WNW,5.8,-,0.02,Rain,Rain,290,2012-10-08 01:52:00
10:52 PM,48.0,44.1,86,30.08,8.0,West,5.8,-,0.06,Rain,Light Rain,270,2012-10-08 02:52:00
11:52 PM,46.9,44.1,90,30.07,10.0,Calm,Calm,-,0.03,Rain,Light Rain,0,2012-10-08 03:52:00